User: anonymous   Login
Location: Unspecified
(0.0000°N, 0.0000°E)
Time: 09:28:20
(UTC+00:00)
Language:

SRMSAT - Orbit

View from above orbital plane
View from above orbital plane
View from above satellite
View from above satellite

Ground track
Ground track

The orbit data is extracted from the following two-line orbital elements,

1 37841U 11058D   19017.00256899  .00000305  00000-0  22711-4 0  9990
2 37841  19.9707 234.3148 0011828 319.5890 159.0465 14.10622931375103
Epoch (UTC): 17 January 2019 00:03:41
Eccentricity: 0.0011828
inclination: 19.9707°
perigee height: 848 km
apogee height: 866 km
right ascension of ascending node: 234.3148°
argument of perigee: 319.5890°
revolutions per day: 14.10622931
mean anomaly at epoch: 159.0465°
orbit number at epoch: 37510

The dashed part of the orbit path shows where the satellite is in the earth's shadow,  

DLR